When you browse on this site, cookies collect data to enhance your experience and personalize the content and advertising you see.
Visit our Privacy Policy to learn more. By continuing to use the site, you agree to this use of cookies and data.
  • In Lithuania
  • List of Countries
  • For 7 days
  • Water Temperature
  • Satellite Maps
  • Weather Map
  • Weather Widgets
  • user-avatar
    Login

    Hourly Weather Severnyy

    Today, 22 February, Friday

    Time Temperature Precipitation Wind Pressure Humidity
    00:00 +3°C° 0 mm 2 mps 743 mmHg 47%
    01:00 +4°C° 0 mm 1 mps 743 mmHg 54%
    02:00 +4°C° 0 mm 1 mps 743 mmHg 60%
    03:00 +3°C° 0 mm 0 mps 743 mmHg 67%
    04:00 +3°C° 0 mm 1 mps 743 mmHg 70%
    05:00 +3°C° 0 mm 1 mps 743 mmHg 73%
    06:00 +2°C° 0 mm 2 mps 743 mmHg 77%
    07:00 +2°C° 0 mm 3 mps 743 mmHg 74%
    08:00 +3°C° 0 mm 4 mps 744 mmHg 71%
    09:00 +3°C° 0 mm 5 mps 744 mmHg 68%
    10:00 +4°C° 0 mm 4 mps 744 mmHg 64%
    11:00 +5°C° 0 mm 4 mps 744 mmHg 60%
    12:00 +7°C° 0 mm 3 mps 744 mmHg 56%
    13:00 +7°C° 0 mm 3 mps 744 mmHg 55%
    14:00 +7°C° 0 mm 2 mps 744 mmHg 53%
    15:00 +8°C° 0 mm 1 mps 743 mmHg 51%
    16:00 +7°C° 0 mm 2 mps 744 mmHg 55%
    17:00 +6°C° 0 mm 2 mps 744 mmHg 58%
    18:00 +5°C° 0 mm 3 mps 744 mmHg 62%
    19:00 +4°C° 0 mm 3 mps 744 mmHg 64%
    20:00 +4°C° 0 mm 3 mps 745 mmHg 66%
    21:00 +3°C° 0 mm 3 mps 745 mmHg 68%
    22:00 +3°C° 0 mm 3 mps 745 mmHg 71%
    23:00 +2°C° 0 mm 3 mps 744 mmHg 73%

    Tomorrow, 23 February, Saturday

    Time Temperature Precipitation Wind Pressure Humidity
    00:00 +2°C° 0 mm 3 mps 744 mmHg 76%
    01:00 +1°C° 0 mm 3 mps 744 mmHg 79%
    02:00 +2°C° 0 mm 2 mps 744 mmHg 83%
    03:00 +1°C° 0 mm 2 mps 744 mmHg 86%
    04:00 +1°C° 0 mm 2 mps 744 mmHg 88%
    05:00 +1°C° 0 mm 2 mps 745 mmHg 91%
    06:00 +1°C° 0 mm 2 mps 745 mmHg 93%
    07:00 +1°C° 0 mm 2 mps 745 mmHg 91%
    08:00 +2°C° 0 mm 2 mps 745 mmHg 88%
    09:00 +2°C° 0 mm 3 mps 746 mmHg 86%
    10:00 +3°C° 0 mm 3 mps 746 mmHg 82%
    11:00 +4°C° 0 mm 3 mps 745 mmHg 79%
    12:00 +5°C° 0 mm 3 mps 745 mmHg 75%
    13:00 +7°C° 0 mm 3 mps 745 mmHg 68%
    14:00 +8°C° 0 mm 3 mps 745 mmHg 61%
    15:00 +10°C° 0 mm 3 mps 745 mmHg 55%
    16:00 +9°C° 0 mm 3 mps 746 mmHg 58%
    17:00 +8°C° 0 mm 2 mps 746 mmHg 61%
    18:00 +7°C° 0 mm 2 mps 746 mmHg 65%
    19:00 +7°C° 0 mm 2 mps 747 mmHg 67%
    20:00 +6°C° 0 mm 2 mps 747 mmHg 70%
    21:00 +5°C° 0 mm 2 mps 748 mmHg 72%
    22:00 +5°C° 0 mm 2 mps 748 mmHg 75%
    23:00 +4°C° 0 mm 2 mps 748 mmHg 77%

    Day after tomorrow, 24 February, Sunday

    Time Temperature Precipitation Wind Pressure Humidity
    00:00 +4°C° 0 mm 2 mps 748 mmHg 79%
    01:00 +3°C° 0 mm 2 mps 748 mmHg 81%
    02:00 +3°C° 0 mm 2 mps 748 mmHg 84%
    03:00 +3°C° 0 mm 1 mps 748 mmHg 87%
    04:00 +3°C° 0 mm 1 mps 748 mmHg 87%
    05:00 +2°C° 0 mm 0 mps 749 mmHg 87%
    06:00 +2°C° 0 mm 0 mps 749 mmHg 88%
    07:00 +3°C° 0 mm 0 mps 749 mmHg 85%
    08:00 +3°C° 0 mm 0 mps 749 mmHg 81%
    09:00 +4°C° 0 mm 0 mps 749 mmHg 78%
    10:00 +7°C° 0 mm 1 mps 749 mmHg 71%
    11:00 +8°C° 0 mm 1 mps 749 mmHg 64%
    12:00 +10°C° 0 mm 1 mps 749 mmHg 58%
    13:00 +9°C° 0 mm 2 mps 749 mmHg 54%
    14:00 +10°C° 0 mm 2 mps 749 mmHg 51%
    15:00 +12°C° 0 mm 2 mps 749 mmHg 48%
    16:00 +10°C° 0 mm 2 mps 749 mmHg 52%
    17:00 +9°C° 0 mm 2 mps 749 mmHg 56%
    18:00 +8°C° 0 mm 2 mps 750 mmHg 60%
    19:00 +8°C° 0 mm 2 mps 750 mmHg 62%
    20:00 +7°C° 0 mm 2 mps 750 mmHg 64%
    21:00 +7°C° 0 mm 2 mps 751 mmHg 66%
    22:00 +6°C° 0 mm 2 mps 751 mmHg 70%
    23:00 +5°C° 0 mm 3 mps 751 mmHg 74%

    25 February, Monday

    Time Temperature Precipitation Wind Pressure Humidity
    00:00 +4°C° 0 mm 4 mps 751 mmHg 78%
    01:00 +4°C° 0.2 mm 4 mps 751 mmHg 80%
    02:00 +3°C° 0.2 mm 4 mps 751 mmHg 82%
    03:00 +1°C° 0.2 mm 4 mps 751 mmHg 85%
    04:00 +2°C° 0.6 mm 3 mps 751 mmHg 85%
    05:00 +2°C° 0.6 mm 3 mps 751 mmHg 86%
    06:00 +1°C° 0.6 mm 3 mps 751 mmHg 86%
    07:00 +1°C° 0.5 mm 3 mps 751 mmHg 86%
    08:00 +2°C° 0.5 mm 2 mps 751 mmHg 86%
    09:00 +2°C° 0.5 mm 2 mps 751 mmHg 86%
    10:00 +2°C° 0.3 mm 2 mps 751 mmHg 84%
    11:00 +3°C° 0.3 mm 2 mps 751 mmHg 82%
    12:00 +2°C° 0.3 mm 3 mps 750 mmHg 80%
    13:00 +3°C° 0.1 mm 3 mps 750 mmHg 77%
    14:00 +3°C° 0.1 mm 3 mps 749 mmHg 74%
    15:00 +3°C° 0.1 mm 3 mps 749 mmHg 71%
    16:00 +3°C° 0 mm 3 mps 748 mmHg 73%
    17:00 +3°C° 0 mm 3 mps 748 mmHg 74%
    18:00 +3°C° 0 mm 2 mps 748 mmHg 76%
    19:00 +2°C° 0 mm 3 mps 748 mmHg 78%
    20:00 +1°C° 0 mm 3 mps 747 mmHg 79%
    21:00 0°C° 0 mm 3 mps 747 mmHg 81%
    22:00 0°C° 0 mm 3 mps 747 mmHg 82%
    23:00 0°C° 0 mm 3 mps 746 mmHg 82%

    26 February, Tuesday

    Time Temperature Precipitation Wind Pressure Humidity
    00:00 -1°C° 0 mm 3 mps 745 mmHg 82%
    01:00 -1°C° 0 mm 3 mps 745 mmHg 82%
    02:00 -1°C° 0 mm 3 mps 744 mmHg 82%
    03:00 -2°C° 0 mm 3 mps 744 mmHg 82%
    04:00 -2°C° 0 mm 3 mps 743 mmHg 82%
    05:00 -2°C° 0 mm 3 mps 743 mmHg 83%
    06:00 -2°C° 0 mm 3 mps 742 mmHg 83%
    07:00 -2°C° 0 mm 4 mps 742 mmHg 78%
    08:00 -1°C° 0 mm 5 mps 741 mmHg 72%
    09:00 -1°C° 0 mm 6 mps 741 mmHg 67%
    10:00 +1°C° 0 mm 6 mps 740 mmHg 63%
    11:00 +3°C° 0 mm 7 mps 739 mmHg 60%
    12:00 +4°C° 0 mm 7 mps 738 mmHg 57%
    13:00 +4°C° 0 mm 6 mps 737 mmHg 58%
    14:00 +4°C° 0 mm 6 mps 737 mmHg 59%
    15:00 +4°C° 0 mm 6 mps 736 mmHg 61%
    16:00 +3°C° 0.3 mm 5 mps 736 mmHg 66%
    17:00 +4°C° 0.3 mm 4 mps 736 mmHg 71%
    18:00 +3°C° 0.3 mm 3 mps 735 mmHg 76%
    19:00 +3°C° 0.6 mm 3 mps 735 mmHg 79%
    20:00 +2°C° 0.6 mm 3 mps 735 mmHg 81%
    21:00 +2°C° 0.6 mm 3 mps 735 mmHg 84%
    22:00 +2°C° 0.4 mm 2 mps 735 mmHg 85%
    23:00 +2°C° 0.4 mm 2 mps 734 mmHg 86%

    27 February, Wednesday

    Time Temperature Precipitation Wind Pressure Humidity
    00:00 +1°C° 0.4 mm 2 mps 734 mmHg 87%
    01:00 +1°C° 0.2 mm 2 mps 734 mmHg 87%
    02:00 +1°C° 0.2 mm 2 mps 733 mmHg 87%
    03:00 -1°C° 0.2 mm 2 mps 733 mmHg 87%
    04:00 -1°C° 0.1 mm 2 mps 733 mmHg 87%
    05:00 +1°C° 0.1 mm 1 mps 733 mmHg 87%
    06:00 +1°C° 0.1 mm 1 mps 733 mmHg 88%
    07:00 +1°C° 0.1 mm 1 mps 733 mmHg 85%
    08:00 +1°C° 0.1 mm 1 mps 733 mmHg 83%
    09:00 -1°C° 0.1 mm 2 mps 733 mmHg 81%
    10:00 +2°C° 0 mm 1 mps 733 mmHg 77%
    11:00 +3°C° 0 mm 1 mps 732 mmHg 73%
    12:00 +3°C° 0 mm 1 mps 732 mmHg 69%
    13:00 +4°C° 0 mm 1 mps 732 mmHg 67%
    14:00 +3°C° 0 mm 0 mps 732 mmHg 66%
    15:00 +4°C° 0 mm 0 mps 732 mmHg 64%
    16:00 +3°C° 0 mm 0 mps 732 mmHg 67%
    17:00 +3°C° 0 mm 0 mps 733 mmHg 71%
    18:00 +4°C° 0 mm 1 mps 733 mmHg 74%
    19:00 +3°C° 0.1 mm 1 mps 733 mmHg 77%
    20:00 +3°C° 0.1 mm 1 mps 734 mmHg 80%
    21:00 +3°C° 0.1 mm 1 mps 734 mmHg 82%
    22:00 +3°C° 0.1 mm 1 mps 734 mmHg 83%
    23:00 +2°C° 0.1 mm 1 mps 735 mmHg 85%
    Show more